Waarnemingen

Advertentie
Mijn weer
Colmar, Frankrijk (7197): temperatuur & dauwpunt: 19.05.2020 13:00:00 - 25.05.2020 13:00:00 (CEST)Colmar, Frankrijk (7197): temperatuur 5cm: 19.05.2020 13:00:00 - 25.05.2020 13:00:00 (CEST)Colmar, Frankrijk (7197): temperatuur -20cm: 19.05.2020 13:00:00 - 25.05.2020 13:00:00 (CEST)Colmar, Frankrijk (7197): windsnelheid & windstoten: 19.05.2020 13:00:00 - 25.05.2020 13:00:00 (CEST)Colmar, Frankrijk (7197): windrichting: 19.05.2020 13:00:00 - 25.05.2020 13:00:00 (CEST)Colmar, Frankrijk (7197): luchtdruk: 19.05.2020 13:00:00 - 25.05.2020 13:00:00 (CEST)Colmar, Frankrijk (7197): zicht: 19.05.2020 13:00:00 - 25.05.2020 13:00:00 (CEST)Colmar, Frankrijk (7197): Zonneschijnduur: 19.05.2020 13:00:00 - 25.05.2020 13:00:00 (CEST)Colmar, Frankrijk (7197): neerslag: 19.05.2020 13:00:00 - 25.05.2020 13:00:00 (CEST)
Datum & Tijd tt [°C] td [°C] tt 5cm [°C] tt -20cm [°C] ff [km/u] ff [kn] fx [km/u] fx [kn] dd ppp [hPa] vv [km] sd [min] rr [mm]
25.05.2020 13:00:00 19,8 9,1 24,1 - 16 9 32 17 N 1032,2 20 60 0,0
25.05.2020 12:00:00 19,2 9,9 20,7 - 10 5 24 13 N 1032,2 20 54 0,0
25.05.2020 11:00:00 17,7 9,8 18,2 - 12 7 23 13 NNO 1032,8 20 60 0,0
25.05.2020 10:00:00 16,4 10,3 16,7 - 11 6 20 11 N 1033,1 20 60 0,0
25.05.2020 09:00:00 14,8 9,2 15,4 - 7 4 12 6 N 1033,2 20 60 0,0
25.05.2020 08:00:00 14,2 9,0 11,6 - 0 0 6 4 N 1033,2 20 60 0,0
25.05.2020 07:00:00 9,7 9,6 5,2 - 0 0 5 3 N 1033,5 20 35 0,0
25.05.2020 06:00:00 6,9 6,3 4,5 - 2 1 5 3 O 1033,4 20 0 0,0
25.05.2020 05:00:00 7,0 6,1 4,5 - 3 2 6 3 ONO 1033,2 20 0 0,0
25.05.2020 04:00:00 8,1 6,9 5,9 - 3 1 9 5 Z 1033,0 20 0 0,0
25.05.2020 03:00:00 8,6 7,8 5,2 - 4 2 6 4 N 1032,8 20 0 0,0
25.05.2020 02:00:00 8,7 7,5 5,7 - 3 1 6 4 NNW 1032,9 20 0 0,0
25.05.2020 01:00:00 10,0 7,4 6,7 - 0 0 8 4 N 1032,9 20 0 0,0
25.05.2020 00:00:00 11,9 8,2 9,7 - 5 3 9 5 ONO 1032,8 20 0 0,0
24.05.2020 23:00:00 13,1 8,2 11,7 - 5 3 13 7 ONO 1032,7 20 0 0,0
24.05.2020 22:00:00 14,7 7,3 13,7 - 9 5 14 8 NO 1032,3 20 0 0,0
24.05.2020 21:00:00 16,5 8,2 15,8 - 7 4 22 12 N 1031,4 20 46 0,0
24.05.2020 20:00:00 18,5 6,7 19,4 - 11 6 22 12 NNO 1030,9 20 45 0,0
24.05.2020 19:00:00 19,9 5,9 21,5 - 12 7 22 12 N 1030,6 20 60 0,0
24.05.2020 18:00:00 20,9 4,4 24,8 - 8 4 16 8 N 1030,4 20 60 0,0
24.05.2020 17:00:00 20,8 5,6 25,9 - 8 5 21 12 NO 1030,4 20 60 0,0
24.05.2020 16:00:00 21,0 6,1 22,4 - 6 3 17 9 WZW 1030,4 20 56 0,0
24.05.2020 15:00:00 19,5 7,2 21,1 - 11 6 20 11 W 1030,6 20 17 0,0
24.05.2020 14:00:00 18,0 9,1 19,2 - 7 4 25 13 ZW 1030,9 20 32 0,0
24.05.2020 13:00:00 18,4 9,5 19,2 - 13 7 24 13 ZW 1031,1 20 47 0,0
24.05.2020 12:00:00 17,4 10,0 17,3 - 10 5 19 10 Z 1031,6 20 54 0,0
24.05.2020 11:00:00 15,4 8,8 15,5 - 12 6 23 12 Z 1032,2 20 25 0,0
24.05.2020 10:00:00 13,9 9,5 14,8 - 11 6 24 13 Z 1032,5 20 5 0,0
24.05.2020 09:00:00 13,6 9,6 12,0 - 14 8 26 14 Z 1032,1 20 58 0,0
24.05.2020 08:00:00 11,2 8,8 10,3 - 13 7 21 11 Z 1032,1 20 22 0,0
24.05.2020 07:00:00 10,0 8,6 8,4 - 10 5 18 10 Z 1032,1 20 37 0,0
24.05.2020 06:00:00 8,9 7,8 8,5 - 6 4 18 10 ZZW 1032,2 20 0 0,0
24.05.2020 05:00:00 9,5 8,1 9,0 - 9 5 20 11 Z 1032,3 20 0 0,0
24.05.2020 04:00:00 9,8 8,7 9,7 - 11 6 18 10 Z 1032,1 20 0 0,0
24.05.2020 03:00:00 9,9 9,3 9,6 - 9 5 19 10 Z 1032,5 20 0 0,0
24.05.2020 02:00:00 10,0 8,9 9,2 - 9 5 17 9 Z 1032,8 20 0 0,0
24.05.2020 01:00:00 9,3 8,5 8,6 - 4 2 11 6 OZO 1032,6 20 0 0,0
24.05.2020 00:00:00 8,7 8,2 7,0 - 5 3 13 7 ZZO 1032,8 20 0 0,0
23.05.2020 23:00:00 9,0 8,2 6,7 - 4 2 12 6 ZZO 1031,6 20 0 0,0
23.05.2020 22:00:00 10,6 9,2 9,5 - 6 4 16 9 Z 1030,9 20 0 0,0
23.05.2020 21:00:00 11,7 10,6 11,0 - 5 3 15 8 ZO 1030,5 20 45 0,0
23.05.2020 20:00:00 12,5 11,2 12,5 - 5 3 11 6 ZZO 1030,7 20 19 0,0
23.05.2020 19:00:00 12,3 10,4 12,2 - 8 5 13 7 Z 1031,2 20 0 0,0
23.05.2020 18:00:00 12,1 10,8 11,6 - 4 2 16 8 Z 1030,6 20 0 0,0
23.05.2020 17:00:00 11,7 10,6 11,6 - 8 4 16 9 O 1029,7 20 0 0,0
23.05.2020 16:00:00 11,4 10,5 11,2 - 6 3 22 12 NNO 1029,1 20 0 0,8
23.05.2020 15:00:00 11,0 10,1 11,1 - 12 6 30 16 NNO 1028,5 16 0 1,8
23.05.2020 14:00:00 11,3 10,4 11,1 - 18 10 30 16 NO 1028,0 18 0 2,6
23.05.2020 13:00:00 12,3 11,7 11,7 - 17 9 39 21 NO 1026,0 17 0 2,6
23.05.2020 12:00:00 12,0 11,2 11,9 - 20 11 37 20 NNO 1024,6 12 0 5,1
23.05.2020 11:00:00 14,8 13,3 14,0 - 16 9 34 18 NNO 1022,6 20 0 2,0
23.05.2020 10:00:00 16,7 14,3 15,5 - 11 6 19 10 N 1021,7 16 0 1,4
23.05.2020 09:00:00 19,1 16,1 18,2 - 7 4 16 8 O 1021,2 20 4 0,0
23.05.2020 08:00:00 18,4 16,9 17,4 - 7 4 17 9 OZO 1021,7 20 0 0,0
23.05.2020 07:00:00 18,0 16,5 16,9 - 7 4 14 8 ONO 1021,9 20 0 0,4
23.05.2020 06:00:00 18,3 16,6 17,2 - 6 3 10 6 Z 1021,5 6 0 1,0
23.05.2020 05:00:00 19,3 15,8 18,6 - 7 4 11 6 Z 1020,9 20 0 0,0
23.05.2020 04:00:00 19,5 16,0 17,7 - 8 4 16 9 ZZW 1020,9 20 0 0,0
23.05.2020 03:00:00 19,2 15,9 17,8 - 4 2 8 5 ZO 1021,1 20 0 0,0
23.05.2020 02:00:00 20,1 15,7 18,8 - 4 2 10 6 OZO 1021,1 20 0 0,0
23.05.2020 01:00:00 21,2 15,7 20,5 - 6 4 14 7 Z 1021,1 20 0 0,0
23.05.2020 00:00:00 22,3 15,6 21,7 - 8 4 15 8 Z 1020,9 20 0 0,0
22.05.2020 23:00:00 23,4 15,7 22,7 - 9 5 15 8 Z 1020,8 20 0 0,0
22.05.2020 22:00:00 23,4 15,7 21,9 - 8 5 16 9 Z 1020,6 20 0 0,0
22.05.2020 21:00:00 24,2 15,4 23,6 - 10 5 17 9 Z 1020,3 20 0 0,0
22.05.2020 20:00:00 24,6 15,2 24,1 - 8 4 17 9 ZZW 1019,9 19 0 0,0
22.05.2020 19:00:00 25,3 15,0 25,2 - 11 6 21 11 ZZW 1019,9 20 0 0,0
22.05.2020 18:00:00 26,0 14,8 26,3 - 12 7 25 13 ZZW 1020,0 20 0 0,0
22.05.2020 17:00:00 26,9 14,6 27,6 - 18 10 35 19 ZZW 1020,1 20 0 0,0
22.05.2020 16:00:00 27,2 13,5 28,3 - 19 10 33 18 ZZW 1019,7 20 0 0,0
22.05.2020 15:00:00 28,1 12,0 30,3 - 19 10 36 19 ZZW 1020,1 20 40 0,0
22.05.2020 14:00:00 27,7 12,5 30,0 - 19 11 34 18 ZZW 1020,2 20 48 0,0
22.05.2020 13:00:00 26,5 11,8 28,4 - 14 8 24 13 Z 1020,8 20 48 0,0
22.05.2020 12:00:00 24,8 13,4 25,3 - 13 7 24 13 Z 1021,3 20 33 0,0
22.05.2020 11:00:00 23,0 12,3 23,4 - 12 6 19 11 Z 1021,4 19 0 0,0
22.05.2020 10:00:00 21,3 13,0 20,5 - 10 5 17 9 Z 1021,5 20 11 0,0
22.05.2020 09:00:00 19,0 12,7 18,5 - 8 4 13 7 Z 1021,4 20 41 0,0
22.05.2020 08:00:00 17,0 11,9 15,9 - 5 3 9 5 Z 1021,3 20 60 0,0
22.05.2020 07:00:00 14,5 11,8 10,9 - 5 3 10 5 Z 1021,2 20 50 0,0
22.05.2020 06:00:00 12,0 11,1 7,2 - 8 4 11 6 ZZW 1021,2 20 0 0,0
22.05.2020 05:00:00 10,7 9,9 7,5 - 4 2 7 4 Z 1021,4 20 0 0,0
22.05.2020 04:00:00 11,4 10,0 8,8 - 5 3 7 4 ZO 1021,5 20 0 0,0
22.05.2020 03:00:00 13,0 10,2 9,8 - 3 2 8 5 ZZW 1021,5 20 0 0,0
22.05.2020 02:00:00 13,9 11,1 10,1 - 5 3 9 5 OZO 1021,5 19 0 0,0
22.05.2020 01:00:00 13,9 10,9 10,1 - 3 1 5 3 ZZW 1021,5 20 0 0,0
22.05.2020 00:00:00 16,0 11,2 11,7 - 0 0 10 5 N 1021,3 20 0 0,0
21.05.2020 23:00:00 17,3 11,3 12,4 - 3 2 5 3 N 1021,1 20 0 0,0
21.05.2020 22:00:00 19,8 11,0 14,0 - 4 2 6 4 N 1020,9 20 0 0,0
21.05.2020 21:00:00 23,6 11,3 20,9 - 4 2 14 7 NO 1019,9 20 37 0,0
21.05.2020 20:00:00 26,0 10,2 26,9 - 8 4 16 9 NO 1019,1 20 48 0,0
21.05.2020 19:00:00 27,3 10,5 29,6 - 9 5 21 12 NO 1018,7 20 58 0,0
21.05.2020 18:00:00 27,8 7,1 31,4 - 10 5 20 11 N 1018,6 20 60 0,0
21.05.2020 17:00:00 27,7 5,9 33,1 - 8 4 24 13 NNO 1018,7 20 60 0,0
21.05.2020 16:00:00 27,9 9,2 33,8 - 9 5 21 11 NO 1019,0 20 60 0,0
21.05.2020 15:00:00 26,8 9,2 31,4 - 11 6 23 13 NNO 1019,4 20 60 0,0
21.05.2020 14:00:00 25,9 10,1 30,9 - 6 4 24 13 N 1019,6 20 60 0,0
21.05.2020 13:00:00 25,0 10,8 29,2 - 7 4 18 10 NO 1019,9 20 60 0,0
21.05.2020 12:00:00 24,2 11,5 26,2 - 9 5 28 15 NNO 1020,4 20 60 0,0
21.05.2020 11:00:00 22,1 12,1 22,4 - 8 4 14 7 N 1020,7 20 60 0,0
21.05.2020 10:00:00 20,7 12,4 20,7 - 6 4 14 7 ONO 1021,1 20 60 0,0
21.05.2020 09:00:00 18,5 12,3 18,3 - 6 4 16 9 NO 1021,3 20 60 0,0
21.05.2020 08:00:00 16,6 11,5 16,1 - 7 4 16 8 NNO 1021,2 20 60 0,0
21.05.2020 07:00:00 14,7 11,1 8,3 - 4 2 10 6 N 1021,1 20 49 0,0
21.05.2020 06:00:00 10,2 9,6 6,9 - 2 1 5 3 N 1020,9 18 0 0,0
21.05.2020 05:00:00 10,6 9,0 7,6 - 0 0 4 2 N 1020,6 20 0 0,0
21.05.2020 04:00:00 12,6 9,4 8,8 - 0 0 8 5 N 1020,5 20 0 0,0
21.05.2020 03:00:00 16,6 10,0 15,1 - 6 3 16 9 NNO 1020,0 20 0 0,0
21.05.2020 02:00:00 16,4 10,3 15,0 - 8 4 14 8 N 1020,1 20 0 0,0
21.05.2020 01:00:00 17,5 10,4 16,3 - 9 5 16 8 N 1020,0 20 0 0,0
21.05.2020 00:00:00 17,8 10,4 16,3 - 9 5 13 7 N 1019,8 20 0 0,0
20.05.2020 23:00:00 18,8 9,8 17,2 - 7 4 14 8 N 1019,7 20 0 0,0
20.05.2020 22:00:00 20,3 9,5 18,9 - 7 4 14 7 NNO 1019,1 20 0 0,0
20.05.2020 21:00:00 22,5 9,6 21,5 - 10 5 20 11 NNO 1018,4 20 42 0,0
20.05.2020 20:00:00 24,2 9,4 25,4 - 11 6 29 16 NNO 1018,0 20 60 0,0
20.05.2020 19:00:00 25,1 9,8 27,5 - 13 7 27 15 NNO 1017,7 20 60 0,0
20.05.2020 18:00:00 25,5 9,3 26,7 - 16 9 28 15 NNO 1017,9 20 51 0,0
20.05.2020 17:00:00 25,9 9,7 26,4 - 12 6 34 18 N 1017,8 20 43 0,0
20.05.2020 16:00:00 25,7 9,9 27,9 - 14 8 47 26 NO 1018,2 20 51 0,0
20.05.2020 15:00:00 25,6 10,2 28,3 - 12 7 29 16 NNO 1018,4 20 53 0,0
20.05.2020 14:00:00 25,3 9,6 27,2 - 16 9 34 18 N 1018,7 20 57 0,0
20.05.2020 13:00:00 24,3 10,2 26,4 - 15 8 30 16 NNO 1018,9 20 56 0,0
20.05.2020 12:00:00 24,1 10,4 - - 15 8 - - N 1019,1 20 - -
20.05.2020 11:00:00 22,6 11,0 20,2 19,9 14 8 27 14 N 1019,4 20 60 0,0
20.05.2020 10:00:00 21,0 10,5 18,6 19,6 14 8 26 14 NNO 1019,7 20 60 0,0
20.05.2020 09:00:00 19,4 9,8 18,4 19,7 12 6 25 13 N 1019,8 20 60 0,0
20.05.2020 08:00:00 17,6 10,0 16,6 19,8 9 5 18 10 N 1019,8 20 60 0,0
20.05.2020 07:00:00 16,4 9,6 14,2 20,2 7 4 18 10 NNO 1019,9 20 49 0,0
20.05.2020 06:00:00 14,9 9,0 13,1 20,5 9 5 15 8 N 1019,7 20 0 0,0
20.05.2020 05:00:00 14,8 8,7 11,1 20,9 6 4 11 6 N 1019,5 20 0 0,0
20.05.2020 04:00:00 15,9 8,6 14,7 21,0 7 4 14 8 N 1019,6 20 0 0,0
20.05.2020 03:00:00 17,1 7,7 16,1 21,3 10 5 18 10 N 1019,7 20 0 0,0
20.05.2020 02:00:00 17,1 7,2 15,4 21,8 11 6 18 10 N 1019,7 20 0 0,0
20.05.2020 01:00:00 17,7 6,8 15,5 22,3 7 4 15 8 NNO 1019,7 20 0 0,0
20.05.2020 00:00:00 18,8 6,9 16,9 22,5 9 5 14 8 N 1019,6 20 0 0,0
19.05.2020 23:00:00 20,8 7,4 18,9 22,4 6 3 16 9 N 1019,2 20 0 0,0
19.05.2020 22:00:00 22,3 6,9 20,5 23,5 8 4 17 9 NNO 1018,8 20 0 0,0
19.05.2020 21:00:00 23,0 6,7 20,6 23,2 10 5 35 19 NNO 1018,2 20 29 0,0
19.05.2020 20:00:00 24,6 7,7 21,4 21,2 19 10 35 19 N 1017,6 20 60 0,0
19.05.2020 19:00:00 25,7 6,8 24,7 22,9 16 8 38 20 NNO 1017,3 20 60 0,0
19.05.2020 18:00:00 25,9 5,5 25,9 25,3 16 9 37 20 NNO 1017,4 20 60 0,0
19.05.2020 17:00:00 26,0 8,0 26,0 22,3 18 10 35 19 NNO 1017,4 20 60 0,0
19.05.2020 16:00:00 25,8 9,2 27,3 23,0 16 8 34 18 N 1017,6 20 60 0,0
19.05.2020 15:00:00 25,8 10,0 25,7 20,9 16 9 34 19 N 1018,3 20 60 0,0
19.05.2020 14:00:00 25,2 9,5 26,4 21,0 16 9 35 19 N 1018,7 20 60 0,0
19.05.2020 13:00:00 24,6 9,3 25,2 17,7 16 9 31 17 N 1019,6 20 60 0,0

tt = temperatuur
td = dauwpunt
tt 5cm = temperatuur 5cm
tt -20cm = temperatuur -20cm
ff = windsnelheid
fx = windstoten
dd = windrichting
ppp = luchtdruk
vv = zicht
sd = Zonneschijnduur
rr = neerslag

Weerstations in de omgeving